Wind_Speed
14 16 16 15 13 14 15 16 16 20 20 17 18 15 16 16 15 15 14 15 16 15 16 17 19 20 21 21 21 19 17 17 17 19 21 21 20 19 19 19 19 18 17
12 15 17 16 13 13 14 15 15 17 18 15 17 15 14 15 14 14 13 14 15 14 15 16 16 17 18 20 20 19 18 17 17 17 19 19 18 18 18 18 17 17 16
15 15 19 18 15 13 14 15 15 14 16 14 15 14 13 14 13 14 13 13 14 14 15 18 17 15 16 18 18 17 17 16 17 16 16 17 17 15 16 15 15 16 15
13 16 20 18 15 14 13 13 14 13 14 13 13 12 12 11 12 13 13 14 13 13 14 15 12 15 14 15 16 15 16 15 17 14 16 14 15 13 12 12 12 13 13
15 16 19 18 16 15 13 11 13 12 11 11 11 10 10 11 12 12 12 12 12 12 11 14 13 12 14 13 13 12 14 14 16 16 14 13 13 11 10 10 11 11 13
21 20 18 18 17 15 13 11 10 10 10 8 9 9 9 11 12 11 11 11 11 12 13 14 10 12 14 12 11 12 11 14 15 16 15 14 13 11 9 9 9 12 12
22 21 23 20 19 15 14 13 9 8 9 6 7 8 9 11 11 11 10 9 8 9 10 12 13 8 13 12 10 11 11 11 12 15 13 13 13 13 9 7 5 9 10
11 24 22 19 20 16 15 12 9 6 6 5 7 7 9 10 9 10 8 8 9 8 7 10 9 9 7 8 8 10 10 11 11 9 11 13 12 12 10 7 5 5 8
16 26 26 25 21 18 15 12 9 6 5 4 7 6 7 9 8 7 5 5 6 5 5 5 8 8 7 5 7 7 10 11 9 11 8 9 11 11 11 8 6 6 6
16 23 21 19 19 17 16 13 10 7 4 4 7 6 8 10 13 13 6 6 10 7 4 1 4 6 5 7 6 7 12 11 9 8 6 8 10 10 10 9 6 6 6
26 22 23 20 17 17 17 13 10 6 4 5 6 6 7 12 17 17 16 8 9 9 5 5 4 4 7 6 5 6 7 10 6 4 5 5 7 8 8 8 6 4 4
25 26 25 23 19 18 16 13 10 7 4 5 4 5 7 9 2 13 16 4 7 8 9 12 8 6 5 5 5 6 4 5 3 3 3 5 5 6 7 6 5 5 3
20 28 20 21 20 17 15 11 8 7 6 4 5 6 6 9 17 19 16 10 7 10 22 14 10 8 6 6 6 3 1 4 2 2 3 3 4 4 4 4 4 5 4
23 22 21 19 15 16 14 10 7 6 6 5 5 8 10 10 14 18 13 18 21 19 21 12 9 7 10 10 8 7 2 2 0 2 6 6 3 1 1 2 1 3 3
26 22 18 21 17 14 12 8 5 5 6 5 6 9 10 10 14 18 11 16 16 16 14 14 12 12 12 12 11 9 7 5 3 1 5 6 2 3 2 2 2 2 2
24 23 19 13 15 10 8 6 4 6 5 6 8 9 9 8 9 16 14 23 17 13 14 15 12 12 12 12 12 11 9 6 2 4 4 1 2 2 5 6 8 6 5
20 18 14 18 10 8 7 5 5 5 5 6 9 8 12 10 9 8 15 14 13 13 12 13 13 12 14 11 10 11 11 11 7 5 3 3 3 6 6 10 17 11 7
22 16 16 12 9 7 6 4 5 6 5 9 10 9 8 8 8 10 11 10 11 12 11 11 12 12 12 11 10 10 11 11 8 7 6 5 5 4 6 7 5 8 7
19 12 11 9 8 7 6 5 5 7 6 8 6 1 8 7 7 7 7 6 7 8 8 10 11 11 10 9 9 10 10 10 8 6 6 4 3 4 4 6 4 5 3
11 11 8 8 8 7 7 6 5 5 5 7 7 12 10 8 7 8 7 5 6 5 6 6 8 8 8 8 9 10 10 9 8 8 6 5 5 4 2 4 4 3 3
14 12 4 6 7 7 5 5 5 5 5 7 7 10 12 9 8 8 8 6 4 4 2 3 5 6 5 9 8 8 6 5 7 8 8 7 8 8 5 3 3 2 3
10 7 4 6 7 7 5 5 4 4 6 7 7 7 8 8 8 8 8 7 8 4 3 3 3 4 5 8 8 7 8 6 7 11 13 13 11 9 7 7 5 4 4
7 7 3 4 5 5 4 4 4 3 3 5 7 7 8 8 7 8 7 8 9 7 7 8 7 3 4 7 6 4 6 5 2 19 18 17 15 14 11 7 7 6 5
9 8 6 4 4 3 2 2 2 1 3 6 7 7 6 6 6 5 6 8 8 10 7 8 9 3 4 4 2 3 5 8 13 15 8 17 17 15 9 5 4 7 7
9 8 7 6 4 3 1 2 2 1 2 5 4 3 6 3 6 4 4 7 8 9 8 6 5 3 2 3 3 4 5 5 7 8 13 18 2 16 14 5 17 13 12
9 7 6 6 5 4 2 1 2 4 4 2 2 5 11 1 6 4 1 3 7 8 7 8 6 2 4 5 5 3 6 8 10 10 15 19 21 16 13 12 13 14 8
Wind_Direction
126 121 127 125 125 123 114 109 105 103 97 92 82 76 80 74 68 62 61 66 65 70 72 78 78 73 75 73 71 71 66 68 73 83 83 83 91 97 99 97 98 96 89
133 128 136 132 135 129 118 110 101 101 98 90 84 75 74 74 71 63 53 57 61 65 66 71 75 73 73 74 72 72 71 75 73 76 83 85 87 92 94 95 94 89 82
150 143 141 139 139 134 126 117 107 103 98 91 82 74 67 68 68 67 60 58 62 62 63 64 69 72 72 73 72 71 72 83 81 85 87 91 90 91 95 99 92 86 83
148 152 146 144 141 135 128 121 113 107 102 96 83 74 67 62 61 58 58 57 53 53 67 65 71 68 73 71 72 73 78 78 83 92 95 93 95 91 92 97 90 89 84
159 160 152 147 144 143 130 131 116 110 103 95 84 72 62 54 48 47 47 49 49 49 53 55 71 74 73 78 77 76 83 81 85 79 90 96 99 97 97 100 94 84 90
168 161 155 155 149 151 144 132 125 119 104 91 83 68 55 48 39 41 42 41 39 39 40 31 60 58 68 74 81 84 78 82 76 75 77 90 99 101 97 106 105 83 83
162 164 166 159 148 157 152 144 144 127 111 98 76 59 48 49 39 37 40 36 47 45 40 33 52 54 71 73 71 84 83 80 89 79 79 83 89 98 102 107 113 86 79
222 166 159 165 150 164 152 149 151 143 119 96 75 52 48 48 28 26 38 30 17 33 41 46 54 57 80 64 75 80 87 87 96 112 76 89 90 93 98 102 118 110 80
183 181 168 168 162 163 158 159 158 156 130 91 65 42 46 35 5 9 46 49 2 351 8 48 70 65 92 76 60 70 106 96 91 85 101 94 95 93 98 106 111 114 97
163 156 161 166 159 163 163 166 161 160 126 84 60 29 23 29 5 358 334 8 23 261 213 112 103 58 100 103 84 83 98 91 96 106 105 97 91 91 93 94 112 123 117
150 157 157 166 162 164 169 165 159 148 116 93 53 31 31 30 3 349 4 19 331 353 193 160 134 91 82 101 78 83 84 96 89 91 86 91 96 91 88 89 93 116 134
156 158 162 162 163 180 163 163 156 131 120 78 67 37 27 33 290 333 348 1 357 46 124 141 122 127 105 78 95 94 55 66 92 139 106 112 101 91 84 87 96 86 105
168 165 157 159 165 183 158 157 150 129 119 88 56 31 22 36 342 354 39 35 64 85 129 125 109 109 109 71 64 64 94 69 80 147 163 136 108 94 86 77 69 71 86
149 165 163 150 172 178 156 154 136 127 109 84 58 32 10 36 355 357 51 70 88 93 134 105 93 99 88 58 46 42 17 122 175 227 210 194 187 64 178 136 86 65 64
156 156 157 159 182 168 158 167 127 110 89 76 45 22 23 26 27 6 51 79 92 86 104 96 88 74 67 57 47 60 67 59 54 320 236 214 231 179 237 281 245 198 178
154 158 176 176 175 169 163 168 116 108 82 50 32 27 31 41 23 34 53 75 68 78 85 93 85 73 65 54 50 58 65 56 44 49 65 188 58 314 293 283 251 214 202
153 154 144 160 179 177 171 148 126 100 64 51 31 19 12 15 29 46 53 53 62 71 69 73 74 65 58 41 54 61 56 53 54 63 36 348 297 322 309 291 305 261 190
156 157 166 169 166 165 154 141 111 85 51 28 21 24 14 10 21 19 56 47 54 53 64 67 63 58 36 48 56 50 44 46 38 41 46 30 38 7 356 347 347 152 183
158 156 151 167 151 155 140 103 74 68 55 36 333 333 38 35 21 16 40 31 41 65 64 64 52 43 50 62 58 58 57 57 47 33 24 29 39 31 18 24 58 135 157
152 132 155 144 133 133 120 103 93 89 67 43 354 18 17 37 23 6 21 26 45 48 49 39 47 38 75 63 63 70 69 69 67 64 45 19 19 28 53 25 58 30 64
143 164 116 118 115 109 104 105 100 94 56 44 34 21 18 14 28 9 7 6 43 49 31 25 37 45 75 64 76 49 54 56 64 65 53 46 38 35 21 8 19 11 1
147 122 106 134 117 116 120 117 102 74 43 28 43 33 41 29 17 24 13 19 16 11 5 34 28 55 73 77 75 38 19 45 42 61 65 55 40 39 28 20 1 325 314
150 186 143 121 114 125 146 142 125 96 44 19 30 36 37 38 24 36 21 12 3 10 15 26 16 47 97 78 78 56 21 318 19 72 55 46 36 25 16 10 350 335 313
175 165 165 164 138 133 151 156 128 84 26 26 30 30 2 33 30 39 28 16 8 359 354 8 18 42 97 88 69 343 30 24 25 33 339 11 5 4 8 342 51 343 325
185 175 171 178 170 133 161 231 222 227 8 28 41 30 357 9 10 25 42 25 10 351 349 349 11 47 125 148 192 300 334 36 27 351 358 8 19 33 13 318 27 30 353
193 181 183 189 188 194 198 285 342 323 325 336 19 358 321 247 11 352 36 52 9 356 357 0 345 304 197 197 230 253 312 329 350 9 358 5 15 14 12 301 11 17 343
Height
5912 5913 5914 5916 5919 5919 5918 5917 5917 5915 5915 5917 5917 5918 5917 5916 5916 5916 5915 5914 5913 5912 5910 5909 5908 5907 5906 5906 5906 5907 5905 5905 5907 5906 5905 5905 5907 5909 5911 5912 5912 5913 5913
5914 5914 5915 5917 5920 5921 5921 5918 5919 5918 5917 5918 5918 5920 5919 5918 5918 5918 5918 5917 5915 5914 5913 5911 5909 5910 5909 5909 5909 5909 5909 5909 5908 5908 5908 5910 5912 5912 5914 5915 5916 5915 5916
5915 5916 5916 5918 5921 5923 5922 5920 5920 5920 5919 5920 5921 5921 5921 5920 5919 5918 5919 5919 5917 5917 5916 5914 5913 5913 5913 5912 5912 5912 5912 5912 5912 5912 5913 5914 5916 5916 5918 5918 5918 5918 5917
5917 5917 5917 5919 5922 5924 5923 5923 5922 5922 5922 5922 5922 5923 5922 5923 5922 5921 5921 5921 5921 5921 5919 5918 5917 5917 5916 5915 5915 5915 5915 5914 5914 5914 5915 5917 5918 5919 5920 5920 5920 5920 5919
5918 5919 5919 5920 5923 5925 5925 5926 5923 5924 5925 5925 5924 5924 5925 5925 5924 5925 5924 5924 5924 5924 5922 5921 5920 5920 5920 5919 5918 5918 5917 5917 5917 5917 5917 5918 5919 5920 5921 5922 5922 5921 5921
5917 5918 5920 5923 5924 5926 5926 5926 5926 5925 5926 5926 5926 5926 5926 5926 5926 5927 5926 5925 5926 5926 5925 5923 5923 5921 5922 5921 5920 5920 5920 5920 5920 5920 5920 5920 5920 5921 5922 5924 5923 5923 5923
5916 5919 5920 5923 5923 5926 5926 5927 5927 5927 5926 5927 5928 5928 5928 5928 5927 5927 5926 5926 5926 5926 5927 5926 5925 5925 5924 5923 5922 5922 5923 5923 5923 5922 5924 5922 5922 5922 5923 5924 5925 5925 5925
5916 5921 5922 5924 5922 5927 5927 5929 5929 5929 5928 5929 5929 5930 5930 5928 5927 5925 5925 5926 5926 5927 5927 5927 5927 5927 5927 5925 5923 5924 5925 5925 5924 5925 5925 5923 5924 5924 5923 5925 5926 5927 5927
5915 5918 5921 5919 5923 5927 5928 5930 5931 5931 5931 5931 5930 5932 5932 5928 5926 5924 5922 5922 5926 5926 5927 5928 5928 5927 5928 5927 5925 5925 5926 5926 5926 5926 5927 5927 5926 5926 5925 5926 5928 5928 5928
5913 5917 5922 5925 5926 5928 5929 5931 5932 5932 5933 5933 5932 5933 5933 5930 5930 5927 5924 5923 5924 5926 5926 5928 5928 5929 5928 5928 5927 5926 5927 5928 5929 5929 5929 5929 5928 5928 5927 5928 5929 5929 5929
5913 5917 5921 5925 5927 5928 5931 5932 5933 5935 5935 5935 5935 5934 5935 5933 5930 5924 5922 5925 5923 5923 5925 5927 5928 5930 5930 5929 5929 5928 5928 5931 5930 5931 5930 5930 5930 5930 5930 5930 5931 5931 5930
5914 5918 5921 5923 5928 5931 5931 5933 5935 5936 5937 5937 5937 5936 5935 5934 5913 5927 5925 5924 5923 5923 5925 5928 5930 5931 5932 5931 5930 5929 5928 5929 5932 5932 5933 5932 5932 5932 5932 5933 5932 5932 5932
5913 5918 5922 5926 5929 5933 5933 5935 5936 5936 5938 5939 5939 5936 5937 5939 5930 5934 5924 5924 5922 5922 5927 5930 5931 5933 5933 5933 5932 5932 5931 5932 5931 5931 5933 5933 5933 5934 5934 5934 5934 5934 5933
5916 5922 5924 5928 5932 5933 5934 5937 5939 5938 5939 5940 5940 5939 5936 5942 5937 5936 5927 5928 5926 5927 5930 5932 5933 5934 5934 5934 5934 5933 5932 5932 5931 5932 5932 5933 5935 5935 5935 5935 5935 5935 5935
5918 5923 5927 5930 5933 5935 5936 5939 5940 5940 5941 5941 5941 5942 5941 5932 5919 5933 5930 5931 5931 5933 5934 5933 5935 5935 5935 5935 5935 5934 5932 5932 5933 5932 5931 5933 5934 5935 5935 5936 5936 5936 5936
5921 5925 5930 5933 5936 5938 5939 5942 5942 5941 5942 5943 5941 5942 5942 5941 5940 5938 5936 5934 5936 5936 5936 5935 5936 5937 5937 5937 5935 5934 5934 5934 5933 5932 5932 5933 5934 5934 5934 5935 5936 5936 5936
5924 5929 5932 5935 5938 5941 5942 5943 5943 5942 5944 5944 5944 5943 5941 5941 5940 5940 5939 5939 5937 5938 5938 5937 5938 5939 5938 5937 5936 5935 5935 5933 5933 5933 5933 5934 5934 5934 5933 5933 5934 5934 5935
5928 5932 5935 5938 5940 5942 5943 5943 5943 5943 5944 5945 5945 5943 5941 5943 5941 5942 5941 5941 5940 5940 5940 5940 5941 5940 5940 5939 5938 5937 5936 5935 5935 5934 5934 5934 5934 5933 5932 5932 5933 5931 5934
5931 5935 5937 5939 5940 5942 5942 5942 5942 5943 5946 5947 5940 5937 5940 5939 5943 5944 5943 5944 5943 5942 5942 5942 5942 5941 5942 5941 5940 5938 5938 5936 5936 5934 5932 5933 5933 5933 5932 5932 5932 5933 5934
5933 5936 5938 5940 5941 5942 5942 5942 5943 5944 5946 5948 5939 5934 5943 5939 5944 5945 5944 5946 5945 5944 5944 5943 5943 5942 5943 5942 5942 5941 5939 5937 5935 5934 5934 5933 5932 5932 5932 5932 5932 5931 5931
5937 5939 5939 5940 5941 5941 5942 5942 5943 5945 5946 5947 5945 5942 5941 5945 5944 5945 5945 5946 5946 5945 5944 5944 5944 5944 5944 5943 5944 5942 5939 5936 5934 5933 5932 5933 5932 5931 5930 5931 5931 5931 5930
5937 5938 5940 5942 5941 5942 5943 5943 5944 5945 5946 5946 5946 5947 5947 5946 5945 5946 5946 5946 5946 5946 5946 5945 5945 5944 5945 5945 5942 5940 5939 5939 5938 5937 5935 5934 5933 5930 5929 5928 5928 5928 5928
5939 5940 5941 5941 5942 5942 5943 5943 5944 5946 5946 5946 5946 5946 5946 5945 5946 5945 5947 5947 5946 5947 5946 5946 5945 5944 5945 5944 5942 5940 5940 5927 5935 5936 5938 5937 5936 5934 5930 5926 5927 5927 5927
5938 5940 5941 5942 5943 5943 5943 5943 5944 5946 5946 5946 5947 5946 5947 5945 5945 5946 5948 5948 5948 5947 5946 5945 5944 5944 5945 5945 5943 5941 5942 5942 5940 5936 5935 5933 5930 5929 5931 5929 5923 5927 5928
5938 5939 5941 5942 5943 5943 5944 5945 5946 5947 5946 5945 5946 5948 5946 5942 5945 5945 5947 5948 5949 5949 5948 5945 5944 5944 5945 5944 5943 5941 5942 5944 5943 5940 5932 5934 5899 5926 5928 5924 5921 5926 5927
5936 5938 5940 5942 5943 5944 5945 5945 5945 5946 5945 5945 5946 5947 5940 5907 5936 5942 5943 5945 5947 5949 5949 5946 5945 5944 5943 5943 5942 5941 5941 5940 5940 5940 5937 5934 5932 5933 5923 5926 5922 5924 5927